Weather in Vozhgora

Russia / Arkhangel'skaya Oblast'     64°32′11″N   48°27′14″E
temp.,
°C
wind,
m/s
gust,
m/s
humid.,
%
clouds,
%
prec.,
mm/h
press.,
hPa
HPBL,
m
12 april, mon
mon1200:00+1wsw613745 0.0 1022928
03:00+1wsw61479100 0.0 10241074
06:00+1wsw61379100 0.0 10271277
09:00+2wsw6117993 0.0 10291090
12:00+4w5968100 0.0 10311149
15:00+6wsw51069100 0.1 10321267
18:00+4sw31068100 0.0 1031306
21:00+3sw51273100 0.0 1030504
13 april, tue
tue1300:00+4sw41481100 0.1 1028679
03:00+4sw5149297 0.1 1027528
06:00+6sw41293100 0.0 1026621
09:00+8ssw41183100 0.0 1024598
12:00+10ssw51269100 0.0 1023969
15:00+6sw41290100 1.9 1021663
18:00+6sw41194100 3.6 1019702
21:00+6wsw3995100 4.4 1020614
14 april, wed
wed1400:00+6sw3993100 0.1 1020364
03:00+5ssw2696100 0.1 1019187
06:00+6ssw2891100 0.0 1018352
09:00+9sw488198 0.0 1016578
12:00+12sw5864100 0.0 10141213
15:00+11sw51074100 0.1 10131093
18:00+6nw4991100 2.3 10131016
21:00+5wsw4981100 3.3 1014882
15 april, thu
thu1500:00+4wnw41069100 0.3 10161158
03:00+2wnw4973100 0.3 1017927
06:000wnw4879100 0.0 1019749
09:00+2wnw4661100 0.0 10201191
12:00+4nw454457 0.0 10211711
15:00+5nw363899 0.0 10212067
18:00+4nw4650100 0.1 10221345
21:00+1nnw466299 0.1 1023990
16 april, fri
fri1600:00−2nw36665 0.0 1025803
03:00−2nnw36705 0.0 1026798
06:00−2n356697 0.0 1027984
09:000n3551100 0.1 10281383
12:00+2nne4643100 0.3 10291758
15:00+2nne5644100 0.9 10301615
18:00+1ne365224 0.2 1031872
21:00−2nne22635 0.2 103349